Powrót do katalogu

STARLINK-4600

AktywnyŁącznośćVLEO
NORAD 53628·PAYLOAD·🇺🇸 United States

Wystrzelony Aug 28, 2022 z Cape Canaveral Space Force Station

Loading…

Następne Przeloty (najbliższe 24 godziny)

TLE

ŚwieżeSource: CelesTrak SupGP

Epoka: Sep 15, 2026, 02:37 UTC

1 53628C 22104AS  26258.10951389 -.00004934  00000+0 -14117-3 0  2588
2 53628  53.1586  92.8166 0001260  83.3079  86.3240 15.35396983    11

Śledź STARLINK-4600 w czasie rzeczywistym z AllMySat

Download on the App Store